Date String (YYYY-MM-DD hh:mm:ss) UTC,Instrument flags,Ambient pressure (hPa),Sample flow (lpm),Bypass flow (lpm),Sample temperature (°C),Ambient temperature (°C),ASC tube jacket temperature (°C),LED temperature (°C),Box temperature (°C),Sample RH (%),Span deviation,Mass concentration (μg/m³),Mass concentration (μg/m³),Mass concentration (μg/m³)
DateTimeUTC,F1_M11,P_M11,Q1_M11,Q2_M11,T1_M11,T2_M11,T3_M11,T4_M11,T5_M11,U1_M11,ZSPAN_M11,X0_M11,X2_M11,X1_M11
2022-01-10 01:00:00,,0838.1,4.98,0.00,24.0,23.2,00.0,33.0,25.8,11.6,0000.0,0010.71,0006.81,0006.25
2022-01-10 01:01:00,,0838.1,5.00,0.00,24.0,23.2,00.0,33.0,25.8,11.6,0000.0,0010.46,0006.79,0006.24
2022-01-10 01:02:00,,0838.1,4.99,0.00,24.0,23.2,00.0,33.0,25.8,11.6,0000.0,0010.49,0006.78,0006.24
2022-01-10 01:03:00,,0838.2,5.02,0.00,24.0,23.1,00.0,33.0,25.7,11.7,0000.0,0010.42,0006.74,0006.22
2022-01-10 01:04:00,,0838.2,4.99,0.00,24.0,23.2,00.0,33.0,25.7,11.7,0000.0,0010.52,0006.72,0006.22
2022-01-10 01:05:00,,0838.2,5.01,0.00,24.0,23.1,00.0,33.0,25.7,11.7,0000.0,0010.85,0006.68,0006.20
2022-01-10 01:06:00,,0838.3,4.99,0.00,24.0,23.1,00.0,33.0,25.7,11.8,0000.0,0010.87,0006.68,0006.19
2022-01-10 01:07:00,,0838.2,5.00,0.00,24.0,23.1,00.0,33.0,25.7,11.8,0000.0,0010.86,0006.66,0006.18
2022-01-10 01:08:00,,0838.3,5.01,0.00,24.0,23.1,00.0,32.9,25.7,11.8,0000.0,0010.86,0006.63,0006.17
2022-01-10 01:09:00,,0838.3,5.00,0.00,24.0,23.1,00.0,32.9,25.7,11.8,0000.0,0011.44,0006.58,0006.16
2022-01-10 01:10:00,,0838.3,4.99,0.00,23.9,23.1,00.0,32.9,25.7,11.8,0000.0,0011.33,0006.56,0006.16
2022-01-10 01:11:00,,0838.3,5.01,0.00,23.9,23.1,00.0,32.9,25.7,11.8,-000.0,0011.29,0006.55,0006.16
2022-01-10 01:12:00,,0838.3,4.99,0.00,23.9,23.1,00.0,32.9,25.7,11.8,0000.1,0011.32,0006.55,0006.17
2022-01-10 01:13:00,,0838.3,5.00,0.00,23.9,23.1,00.0,32.9,25.7,11.8,0000.0,0011.57,0006.54,0006.17
2022-01-10 01:14:00,,0838.3,4.99,0.00,23.9,23.1,00.0,32.9,25.7,11.8,-000.1,0011.54,0006.54,0006.18
2022-01-10 01:15:00,,0838.3,5.01,0.00,23.9,23.1,00.0,32.9,25.7,11.8,0000.0,0011.33,0006.53,0006.18
2022-01-10 01:16:00,,0838.3,4.98,0.00,23.9,23.1,00.0,32.9,25.7,11.8,0000.0,0010.78,0006.53,0006.18
2022-01-10 01:17:00,,0838.4,5.02,0.00,23.9,23.1,00.0,32.9,25.7,11.8,0000.0,0010.70,0006.50,0006.18
2022-01-10 01:18:00,,0838.4,4.99,0.00,23.9,23.0,00.0,32.9,25.7,11.8,0000.0,0010.61,0006.48,0006.19
2022-01-10 01:19:00,,0838.4,5.00,0.00,23.9,23.0,00.0,32.9,25.6,11.7,0000.0,0010.62,0006.51,0006.22
2022-01-10 01:20:00,,0838.4,5.01,0.00,23.9,23.0,00.0,32.9,25.6,11.7,0000.0,0010.02,0006.55,0006.24
2022-01-10 01:21:00,,0838.5,5.00,0.00,23.9,23.0,00.0,32.9,25.6,11.7,0000.0,0010.00,0006.57,0006.25
2022-01-10 01:22:00,,0838.5,4.99,0.00,23.9,23.0,00.0,32.9,25.6,11.7,0000.0,0010.05,0006.59,0006.26
2022-01-10 01:23:00,,0838.5,5.02,0.00,23.9,23.0,00.0,32.9,25.6,11.7,0000.0,0010.68,0006.59,0006.26
2022-01-10 01:24:00,,0838.5,5.00,0.00,23.9,23.0,00.0,32.9,25.6,11.7,0000.0,0010.63,0006.59,0006.26
2022-01-10 01:25:00,,0838.5,5.00,0.00,23.9,23.0,00.0,32.9,25.6,11.7,0000.0,0010.79,0006.60,0006.25
2022-01-10 01:26:00,,0838.5,4.98,0.00,23.9,23.0,00.0,32.8,25.6,11.8,0000.0,0011.40,0006.62,0006.26
2022-01-10 01:27:00,,0838.5,5.01,0.00,23.9,23.0,00.0,32.8,25.6,11.8,0000.0,0011.51,0006.63,0006.28
2022-01-10 01:28:00,,0838.6,5.00,0.00,23.8,23.0,00.0,32.8,25.6,11.8,0000.0,0011.58,0006.68,0006.32
2022-01-10 01:29:00,,0838.7,4.99,0.00,23.8,23.0,00.0,32.8,25.6,11.9,0000.0,0011.72,0006.78,0006.40
2022-01-10 01:30:00,,0838.6,5.01,0.00,23.8,23.0,00.0,32.8,25.6,11.9,0000.0,0011.81,0006.85,0006.47
2022-01-10 01:31:00,,0838.6,4.99,0.00,23.8,23.0,00.0,32.8,25.6,11.9,0000.0,0011.94,0006.95,0006.54
2022-01-10 01:32:00,,0838.7,5.02,0.00,23.8,23.0,00.0,32.8,25.6,11.8,0000.0,0012.13,0007.04,0006.61
2022-01-10 01:33:00,,0838.7,4.99,0.00,23.8,23.0,00.0,32.8,25.6,11.8,0000.0,0012.17,0007.09,0006.65
2022-01-10 01:34:00,,0838.7,5.02,0.00,23.8,22.9,00.0,32.8,25.6,11.8,0000.0,0011.55,0007.14,0006.68
2022-01-10 01:35:00,,0838.7,4.99,0.00,23.8,23.0,00.0,32.8,25.6,11.8,0000.0,0011.35,0007.21,0006.75
2022-01-10 01:36:00,,0838.7,5.00,0.00,23.8,22.9,00.0,32.8,25.5,11.8,0000.0,0011.46,0007.35,0006.86
2022-01-10 01:37:00,,0838.7,4.99,0.00,23.8,22.9,00.0,32.8,25.6,11.8,0000.0,0011.16,0007.44,0006.93
2022-01-10 01:38:00,,0838.8,5.00,0.00,23.8,22.9,00.0,32.8,25.6,11.8,0000.0,0011.14,0007.52,0006.98
2022-01-10 01:39:00,,0838.9,5.01,0.00,23.8,22.9,00.0,32.8,25.5,11.8,0000.0,0011.19,0007.57,0007.03
2022-01-10 01:40:00,,0838.8,4.99,0.00,23.8,22.9,00.0,32.8,25.5,11.8,0000.0,0011.21,0007.59,0007.04
2022-01-10 01:41:00,,0838.8,5.01,0.00,23.8,22.9,00.0,32.8,25.5,11.8,0000.0,0011.23,0007.58,0007.06
2022-01-10 01:42:00,,0838.8,5.00,0.00,23.8,22.9,00.0,32.8,25.5,11.8,0000.0,0011.61,0007.56,0007.08
2022-01-10 01:43:00,,0838.9,4.98,0.00,23.8,22.9,00.0,32.7,25.5,11.8,0000.0,0011.65,0007.53,0007.09
2022-01-10 01:44:00,,0838.9,5.00,0.00,23.8,22.9,00.0,32.7,25.5,11.8,0000.0,0011.95,0007.61,0007.14
2022-01-10 01:45:00,,0838.9,5.00,0.00,23.8,22.9,00.0,32.7,25.5,11.9,0000.0,0012.19,0007.69,0007.21
2022-01-10 01:46:00,,0839.0,4.99,0.00,23.8,22.9,00.0,32.7,25.5,11.8,0000.0,0012.21,0007.70,0007.24
2022-01-10 01:47:00,,0839.0,4.99,0.00,23.7,22.9,00.0,32.7,25.5,11.8,0000.0,0012.23,0007.65,0007.21
2022-01-10 01:48:00,,0839.0,5.01,0.00,23.7,22.9,00.0,32.7,25.5,11.8,0000.0,0012.20,0007.61,0007.20
2022-01-10 01:49:00,,0839.0,5.01,0.00,23.7,22.9,00.0,32.7,25.5,11.8,0000.0,0012.10,0007.59,0007.22
2022-01-10 01:50:00,,0839.0,4.99,0.00,23.7,22.8,00.0,32.7,25.5,11.8,0000.0,0012.12,0007.59,0007.22
2022-01-10 01:51:00,,0838.9,5.01,0.00,23.7,22.8,00.0,32.7,25.5,11.9,0000.0,0012.27,0007.60,0007.22
2022-01-10 01:52:00,,0839.0,5.00,0.00,23.7,22.8,00.0,32.7,25.5,11.9,0000.0,0012.41,0007.66,0007.23
2022-01-10 01:53:00,,0839.0,5.00,0.00,23.7,22.8,00.0,32.7,25.5,11.9,0000.0,0011.98,0007.65,0007.19
2022-01-10 01:54:00,,0839.0,4.99,0.00,23.7,22.8,00.0,32.7,25.4,11.9,0000.0,0011.86,0007.67,0007.17
2022-01-10 01:55:00,,0839.0,5.00,0.00,23.6,22.8,00.0,32.7,25.4,12.0,0000.0,0011.64,0007.60,0007.12
2022-01-10 01:56:00,,0839.0,5.00,0.00,23.6,22.8,00.0,32.7,25.3,12.0,0000.0,0011.44,0007.54,0007.07
2022-01-10 01:57:00,,0839.0,5.01,0.00,23.6,22.7,00.0,32.7,25.3,12.1,0000.0,0011.46,0007.56,0007.07
2022-01-10 01:58:00,,0839.0,4.99,0.00,23.6,22.7,00.0,32.6,25.3,12.1,0000.1,0011.53,0007.62,0007.12
2022-01-10 01:59:00,,0839.0,5.00,0.00,23.6,22.7,00.0,32.6,25.3,12.1,0000.9,0011.59,0007.69,0007.18
